Time,TemperatureF,DewpointF,PressureIn,WindDirection,WindDirectionDegrees,WindSpeedMPH,WindSpeedGustMPH,Humidity,HourlyPrecipIn,Conditions,Clouds,dailyrainin,SoftwareType,DateUTC
2013-07-23 00:01:00,66.6,59.5,29.82,West,270,0.7,3.1,78,0.00,,,0.00,pywws,2013-07-23 07:01:00,
2013-07-23 00:07:00,66.4,59.7,29.83,West,270,2.2,3.8,79,0.00,,,0.00,pywws,2013-07-23 07:07:00,
2013-07-23 00:17:00,65.5,58.8,29.83,NW,315,0.0,1.6,79,0.00,,,0.00,pywws,2013-07-23 07:17:00,
2013-07-23 00:27:00,64.9,58.3,29.83,SE,135,0.0,0.0,79,0.00,,,0.00,pywws,2013-07-23 07:27:00,
2013-07-23 00:37:00,64.2,58.3,29.83,SW,225,0.0,1.6,81,0.00,,,0.00,pywws,2013-07-23 07:37:00,
2013-07-23 00:47:00,64.2,58.3,29.83,West,270,0.0,0.0,81,0.00,,,0.00,pywws,2013-07-23 07:47:00,
2013-07-23 00:57:00,64.0,58.4,29.82,SW,225,0.0,1.6,82,0.00,,,0.00,pywws,2013-07-23 07:57:00,
2013-07-23 01:07:00,64.2,58.6,29.82,North,0,0.7,2.2,82,0.00,,,0.00,pywws,2013-07-23 08:07:00,
2013-07-23 01:17:00,63.9,57.9,29.83,West,270,0.7,1.6,81,0.00,,,0.00,pywws,2013-07-23 08:17:00,
2013-07-23 01:27:00,63.7,58.1,29.82,NW,315,0.7,1.6,82,0.00,,,0.00,pywws,2013-07-23 08:27:00,
2013-07-23 01:37:00,63.9,57.9,29.82,North,0,0.0,0.7,81,0.00,,,0.00,pywws,2013-07-23 08:37:00,
2013-07-23 01:47:00,64.0,58.1,29.83,NW,315,0.7,2.2,81,0.00,,,0.00,pywws,2013-07-23 08:47:00,
2013-07-23 02:00:00,64.2,58.3,29.83,NW,315,2.2,3.8,81,0.00,,,0.00,pywws,2013-07-23 09:00:00,
2013-07-23 02:07:00,64.4,58.4,29.83,North,0,1.6,3.1,81,0.00,,,0.00,pywws,2013-07-23 09:07:00,
2013-07-23 02:17:00,64.6,58.3,29.83,North,0,0.7,1.6,80,0.00,,,0.00,pywws,2013-07-23 09:17:00,
2013-07-23 02:27:00,64.2,57.9,29.83,North,0,0.0,1.6,80,0.00,,,0.00,pywws,2013-07-23 09:27:00,
2013-07-23 02:37:00,64.2,57.9,29.84,SW,225,0.7,2.2,80,0.00,,,0.00,pywws,2013-07-23 09:37:00,
2013-07-23 02:47:00,64.0,57.7,29.84,WNW,292,2.2,3.8,80,0.00,,,0.00,pywws,2013-07-23 09:47:00,
2013-07-23 03:02:00,64.0,58.1,29.84,West,270,0.0,0.7,81,0.00,,,0.00,pywws,2013-07-23 10:02:00,
2013-07-23 03:07:00,63.9,57.9,29.83,SW,225,0.7,1.6,81,0.00,,,0.00,pywws,2013-07-23 10:07:00,
2013-07-23 03:17:00,63.5,57.9,29.83,NW,315,0.7,3.1,82,0.00,,,0.00,pywws,2013-07-23 10:17:00,
2013-07-23 03:27:00,63.3,57.7,29.83,NW,315,0.7,2.2,82,0.00,,,0.00,pywws,2013-07-23 10:27:00,
2013-07-23 03:37:00,63.3,58.1,29.83,NW,315,1.6,2.2,83,0.00,,,0.00,pywws,2013-07-23 10:37:00,
2013-07-23 03:47:00,63.3,58.1,29.83,NW,315,0.0,1.6,83,0.00,,,0.00,pywws,2013-07-23 10:47:00,
2013-07-23 04:00:00,63.1,57.9,29.83,South,180,0.0,0.0,83,0.00,,,0.00,pywws,2013-07-23 11:00:00,
2013-07-23 04:07:00,63.1,58.2,29.83,NW,315,0.0,1.6,84,0.00,,,0.00,pywws,2013-07-23 11:07:00,
2013-07-23 04:17:00,63.1,58.2,29.84,North,0,0.0,0.7,84,0.00,,,0.00,pywws,2013-07-23 11:17:00,
2013-07-23 04:27:00,63.0,58.4,29.83,NW,315,0.7,1.6,85,0.00,,,0.00,pywws,2013-07-23 11:27:00,
2013-07-23 04:37:00,63.1,58.6,29.83,West,270,0.7,1.6,85,0.00,,,0.00,pywws,2013-07-23 11:37:00,
2013-07-23 04:47:00,63.1,58.2,29.83,NE,45,0.0,0.0,84,0.00,,,0.00,pywws,2013-07-23 11:47:00,
2013-07-23 05:00:00,63.3,59.1,29.85,South,180,0.7,3.1,86,0.00,,,0.00,pywws,2013-07-23 12:00:00,
2013-07-23 05:07:00,63.5,59.2,29.85,West,270,1.6,3.1,86,0.00,,,0.00,pywws,2013-07-23 12:07:00,
2013-07-23 05:17:00,63.7,59.4,29.85,NW,315,0.0,1.6,86,0.00,,,0.00,pywws,2013-07-23 12:17:00,
2013-07-23 05:27:00,63.7,59.4,29.84,North,0,0.7,2.2,86,0.00,,,0.00,pywws,2013-07-23 12:27:00,
2013-07-23 05:37:00,63.3,59.1,29.84,NW,315,0.7,3.1,86,0.00,,,0.00,pywws,2013-07-23 12:37:00,
2013-07-23 05:47:00,63.3,59.1,29.84,NW,315,1.6,3.1,86,0.00,,,0.00,pywws,2013-07-23 12:47:00,
2013-07-23 06:01:00,63.3,59.4,29.85,North,0,3.1,4.5,87,0.00,,,0.00,pywws,2013-07-23 13:01:00,
2013-07-23 06:07:00,63.3,59.4,29.85,NNE,22,2.2,4.5,87,0.00,,,0.00,pywws,2013-07-23 13:07:00,
2013-07-23 06:17:00,63.5,59.2,29.85,NW,315,3.1,4.5,86,0.00,,,0.00,pywws,2013-07-23 13:17:00,
2013-07-23 06:27:00,63.5,58.9,29.85,NE,45,0.7,1.6,85,0.00,,,0.00,pywws,2013-07-23 13:27:00,
2013-07-23 06:37:00,63.7,59.1,29.85,West,270,0.7,1.6,85,0.00,,,0.00,pywws,2013-07-23 13:37:00,
2013-07-23 06:47:00,63.9,58.9,29.85,West,270,0.7,2.2,84,0.00,,,0.00,pywws,2013-07-23 13:47:00,
2013-07-23 07:00:00,64.0,58.8,29.85,West,270,2.2,3.8,83,0.00,,,0.00,pywws,2013-07-23 14:00:00,
2013-07-23 07:07:00,64.2,58.9,29.86,SW,225,0.7,2.2,83,0.00,,,0.00,pywws,2013-07-23 14:07:00,
2013-07-23 07:17:00,64.6,60.0,29.87,SW,225,0.7,1.6,85,0.00,,,0.00,pywws,2013-07-23 14:17:00,
2013-07-23 07:27:00,64.8,60.1,29.87,West,270,1.6,4.5,85,0.00,,,0.00,pywws,2013-07-23 14:27:00,
2013-07-23 07:37:00,64.9,60.3,29.86,WSW,248,0.7,1.6,85,0.00,,,0.00,pywws,2013-07-23 14:37:00,
2013-07-23 07:47:00,66.7,60.7,29.86,East,90,1.6,3.1,81,0.00,,,0.00,pywws,2013-07-23 14:47:00,
2013-07-23 08:00:00,68.7,60.8,29.86,North,0,0.0,1.6,76,0.00,,,0.00,pywws,2013-07-23 15:00:00,
2013-07-23 08:07:00,71.6,60.0,29.86,SW,225,2.2,3.1,67,0.00,,,0.00,pywws,2013-07-23 15:07:00,
2013-07-23 08:17:00,70.0,59.7,29.86,South,180,1.6,3.1,70,0.00,,,0.00,pywws,2013-07-23 15:17:00,
2013-07-23 08:27:00,68.0,60.1,29.87,SW,225,2.2,3.8,76,0.00,,,0.00,pywws,2013-07-23 15:27:00,
2013-07-23 08:37:00,68.4,60.5,29.87,SSW,202,3.1,4.5,76,0.00,,,0.00,pywws,2013-07-23 15:37:00,
2013-07-23 08:47:00,70.2,60.7,29.87,SW,225,3.1,5.4,72,0.00,,,0.00,pywws,2013-07-23 15:47:00,
2013-07-23 09:00:00,70.2,61.1,29.87,SW,225,1.6,3.1,73,0.00,,,0.00,pywws,2013-07-23 16:00:00,
2013-07-23 09:07:00,74.1,61.6,29.87,West,270,3.1,4.5,65,0.00,,,0.00,pywws,2013-07-23 16:07:00,
2013-07-23 09:17:00,75.4,62.8,29.86,West,270,0.0,3.1,65,0.00,,,0.00,pywws,2013-07-23 16:17:00,
2013-07-23 09:27:00,75.9,62.4,29.86,ENE,68,0.7,3.1,63,0.00,,,0.00,pywws,2013-07-23 16:27:00,
2013-07-23 09:37:00,77.7,62.2,29.86,WSW,248,1.6,3.1,59,0.00,,,0.00,pywws,2013-07-23 16:37:00,
2013-07-23 09:47:00,78.3,62.2,29.86,South,180,2.2,4.5,58,0.00,,,0.00,pywws,2013-07-23 16:47:00,
2013-07-23 10:00:00,75.9,61.9,29.87,West,270,2.2,3.8,62,0.00,,,0.00,pywws,2013-07-23 17:00:00,
2013-07-23 10:07:00,75.9,61.9,29.86,SW,225,3.1,5.4,62,0.00,,,0.00,pywws,2013-07-23 17:07:00,
2013-07-23 10:17:00,76.5,62.5,29.86,West,270,2.2,3.8,62,0.00,,,0.00,pywws,2013-07-23 17:17:00,
2013-07-23 10:27:00,76.5,62.5,29.87,West,270,3.8,6.0,62,0.00,,,0.00,pywws,2013-07-23 17:27:00,
2013-07-23 10:37:00,76.3,63.6,29.87,SW,225,3.1,6.0,65,0.00,,,0.00,pywws,2013-07-23 17:37:00,
2013-07-23 10:47:00,77.4,63.3,29.87,West,270,2.2,3.8,62,0.00,,,0.00,pywws,2013-07-23 17:47:00,
2013-07-23 11:03:00,78.4,63.4,29.87,SW,225,3.8,6.0,60,0.00,,,0.00,pywws,2013-07-23 18:03:00,
2013-07-23 11:07:00,78.3,63.2,29.87,West,270,2.2,6.9,60,0.00,,,0.00,pywws,2013-07-23 18:07:00,
2013-07-23 11:17:00,81.0,63.2,29.86,NNE,22,2.2,3.8,55,0.00,,,0.00,pywws,2013-07-23 18:17:00,
2013-07-23 11:27:00,79.9,63.3,29.86,SW,225,3.8,6.9,57,0.00,,,0.00,pywws,2013-07-23 18:27:00,
2013-07-23 11:37:00,80.2,63.6,29.86,SSW,202,3.8,5.4,57,0.00,,,0.00,pywws,2013-07-23 18:37:00,
2013-07-23 11:47:00,79.5,63.9,29.86,West,270,3.8,6.9,59,0.00,,,0.00,pywws,2013-07-23 18:47:00,
2013-07-23 12:01:00,79.0,64.4,29.85,WSW,248,5.4,7.6,61,0.00,,,0.00,pywws,2013-07-23 19:01:00,
2013-07-23 12:07:00,79.0,63.9,29.85,West,270,3.1,6.0,60,0.00,,,0.00,pywws,2013-07-23 19:07:00,
2013-07-23 12:17:00,78.6,63.6,29.85,West,270,5.4,7.6,60,0.00,,,0.00,pywws,2013-07-23 19:17:00,
2013-07-23 12:27:00,78.3,63.7,29.86,NW,315,4.5,6.9,61,0.00,,,0.00,pywws,2013-07-23 19:27:00,
2013-07-23 12:37:00,78.4,63.4,29.86,West,270,5.4,9.8,60,0.00,,,0.00,pywws,2013-07-23 19:37:00,
2013-07-23 12:47:00,80.1,62.9,29.86,West,270,5.4,9.8,56,0.00,,,0.00,pywws,2013-07-23 19:47:00,
2013-07-23 13:03:00,80.8,63.1,29.86,North,0,3.1,6.0,55,0.00,,,0.00,pywws,2013-07-23 20:03:00,
2013-07-23 13:07:00,81.7,62.3,29.85,NW,315,4.5,6.9,52,0.00,,,0.00,pywws,2013-07-23 20:07:00,
2013-07-23 13:17:00,83.7,62.4,29.85,West,270,4.5,7.6,49,0.00,,,0.00,pywws,2013-07-23 20:17:00,
2013-07-23 13:27:00,84.0,62.8,29.85,WNW,292,3.8,6.9,49,0.00,,,0.00,pywws,2013-07-23 20:27:00,
2013-07-23 13:37:00,85.8,63.2,29.84,NW,315,3.1,5.4,47,0.00,,,0.00,pywws,2013-07-23 20:37:00,
2013-07-23 13:47:00,87.4,63.5,29.83,North,0,3.1,5.4,45,0.00,,,0.00,pywws,2013-07-23 20:47:00,
2013-07-23 14:01:00,86.9,63.0,29.84,NW,315,3.1,4.5,45,0.00,,,0.00,pywws,2013-07-23 21:01:00,
2013-07-23 14:07:00,87.3,63.3,29.83,NW,315,3.8,8.3,45,0.00,,,0.00,pywws,2013-07-23 21:07:00,
2013-07-23 14:17:00,87.3,63.3,29.83,NW,315,4.5,9.2,45,0.00,,,0.00,pywws,2013-07-23 21:17:00,
2013-07-23 14:27:00,86.7,62.2,29.83,West,270,6.0,7.6,44,0.00,,,0.00,pywws,2013-07-23 21:27:00,
2013-07-23 14:37:00,86.2,62.3,29.83,SW,225,4.5,9.8,45,0.00,,,0.00,pywws,2013-07-23 21:37:00,
2013-07-23 14:47:00,85.8,63.2,29.83,West,270,5.4,7.6,47,0.00,,,0.00,pywws,2013-07-23 21:47:00,
2013-07-23 15:01:00,86.4,63.7,29.83,NW,315,6.0,10.7,47,0.00,,,0.00,pywws,2013-07-23 22:01:00,
2013-07-23 15:07:00,86.4,63.1,29.83,West,270,5.4,8.3,46,0.00,,,0.00,pywws,2013-07-23 22:07:00,
2013-07-23 15:17:00,84.9,62.4,29.82,West,270,4.5,9.2,47,0.00,,,0.00,pywws,2013-07-23 22:17:00,
2013-07-23 15:27:00,86.2,62.3,29.82,West,270,6.9,9.8,45,0.00,,,0.00,pywws,2013-07-23 22:27:00,
2013-07-23 15:37:00,86.9,62.3,29.81,NW,315,4.5,7.6,44,0.00,,,0.00,pywws,2013-07-23 22:37:00,
2013-07-23 15:47:00,86.7,62.2,29.82,NW,315,5.4,9.2,44,0.00,,,0.00,pywws,2013-07-23 22:47:00,
2013-07-23 15:57:00,84.4,61.3,29.81,West,270,8.3,13.6,46,0.00,,,0.00,pywws,2013-07-23 22:57:00,
2013-07-23 16:07:00,83.7,61.3,29.81,WNW,292,3.8,7.6,47,0.00,,,0.00,pywws,2013-07-23 23:07:00,
2013-07-23 16:17:00,82.4,60.7,29.81,SW,225,6.0,11.4,48,0.00,,,0.00,pywws,2013-07-23 23:17:00,
2013-07-23 16:27:00,82.6,60.9,29.82,West,270,5.4,9.2,48,0.00,,,0.00,pywws,2013-07-23 23:27:00,
2013-07-23 16:37:00,83.8,60.8,29.81,North,0,4.5,9.2,46,0.00,,,0.00,pywws,2013-07-23 23:37:00,
2013-07-23 16:47:00,86.0,61.5,29.81,North,0,4.5,8.3,44,0.00,,,0.00,pywws,2013-07-23 23:47:00,
2013-07-23 17:01:00,83.3,60.9,29.81,South,180,5.4,9.8,47,0.00,,,0.00,pywws,2013-07-24 00:01:00,
2013-07-23 17:07:00,83.7,60.7,29.81,NW,315,3.1,5.4,46,0.00,,,0.00,pywws,2013-07-24 00:07:00,
2013-07-23 17:17:00,83.7,60.7,29.81,NW,315,6.0,9.8,46,0.00,,,0.00,pywws,2013-07-24 00:17:00,
2013-07-23 17:27:00,84.4,60.7,29.81,NW,315,3.8,6.9,45,0.00,,,0.00,pywws,2013-07-24 00:27:00,
2013-07-23 17:37:00,83.8,60.8,29.81,East,90,3.8,5.4,46,0.00,,,0.00,pywws,2013-07-24 00:37:00,
2013-07-23 17:47:00,84.0,60.4,29.81,NE,45,3.8,7.6,45,0.00,,,0.00,pywws,2013-07-24 00:47:00,
2013-07-23 18:00:00,82.0,59.2,29.81,West,270,3.1,6.9,46,0.00,,,0.00,pywws,2013-07-24 01:00:00,
2013-07-23 18:07:00,80.4,58.9,29.81,NW,315,5.4,8.3,48,0.00,,,0.00,pywws,2013-07-24 01:07:00,
2013-07-23 18:17:00,80.4,58.3,29.81,North,0,3.1,5.4,47,0.00,,,0.00,pywws,2013-07-24 01:17:00,
2013-07-23 18:27:00,81.5,58.7,29.81,NW,315,4.5,6.9,46,0.00,,,0.00,pywws,2013-07-24 01:27:00,
2013-07-23 18:37:00,81.7,58.9,29.82,West,270,3.1,8.3,46,0.00,,,0.00,pywws,2013-07-24 01:37:00,
2013-07-23 18:47:00,81.5,59.3,29.81,SW,225,1.6,3.8,47,0.00,,,0.00,pywws,2013-07-24 01:47:00,
2013-07-23 19:01:00,80.4,58.3,29.81,NW,315,3.8,6.0,47,0.00,,,0.00,pywws,2013-07-24 02:01:00,
2013-07-23 19:07:00,80.2,58.7,29.81,West,270,3.8,5.4,48,0.00,,,0.00,pywws,2013-07-24 02:07:00,
2013-07-23 19:17:00,79.9,58.4,29.81,NE,45,3.1,8.3,48,0.00,,,0.00,pywws,2013-07-24 02:17:00,
2013-07-23 19:27:00,79.2,58.3,29.81,NW,315,4.5,7.6,49,0.00,,,0.00,pywws,2013-07-24 02:27:00,
2013-07-23 19:37:00,78.3,58.1,29.81,NW,315,1.6,6.0,50,0.00,,,0.00,pywws,2013-07-24 02:37:00,
2013-07-23 19:47:00,77.5,56.9,29.82,NE,45,3.8,6.9,49,0.00,,,0.00,pywws,2013-07-24 02:47:00,
2013-07-23 20:01:00,76.3,57.3,29.82,NW,315,3.1,5.4,52,0.00,,,0.00,pywws,2013-07-24 03:01:00,
2013-07-23 20:07:00,74.7,56.4,29.82,NW,315,3.1,6.0,53,0.00,,,0.00,pywws,2013-07-24 03:07:00,
2013-07-23 20:17:00,73.8,56.6,29.82,NW,315,2.2,4.5,55,0.00,,,0.00,pywws,2013-07-24 03:17:00,
2013-07-23 20:27:00,73.0,55.9,29.83,NW,315,2.2,3.8,55,0.00,,,0.00,pywws,2013-07-24 03:27:00,
2013-07-23 20:37:00,72.7,55.6,29.83,SW,225,2.2,4.5,55,0.00,,,0.00,pywws,2013-07-24 03:37:00,
2013-07-23 20:47:00,72.1,56.1,29.83,NW,315,2.2,3.8,57,0.00,,,0.00,pywws,2013-07-24 03:47:00,
2013-07-23 21:05:00,71.6,56.5,29.83,WNW,292,1.6,2.2,59,0.00,,,0.00,pywws,2013-07-24 04:05:00,
2013-07-23 21:07:00,71.2,56.2,29.83,NW,315,1.6,4.5,59,0.00,,,0.00,pywws,2013-07-24 04:07:00,
2013-07-23 21:17:00,70.7,57.5,29.84,West,270,1.6,3.8,63,0.00,,,0.00,pywws,2013-07-24 04:17:00,
2013-07-23 21:27:00,70.2,57.4,29.84,SW,225,1.6,3.1,64,0.00,,,0.00,pywws,2013-07-24 04:27:00,
2013-07-23 21:37:00,69.6,57.3,29.84,West,270,1.6,3.1,65,0.00,,,0.00,pywws,2013-07-24 04:37:00,
2013-07-23 21:47:00,69.1,57.7,29.85,West,270,2.2,3.1,67,0.00,,,0.00,pywws,2013-07-24 04:47:00,
2013-07-23 22:00:00,68.7,57.7,29.85,West,270,0.7,3.1,68,0.00,,,0.00,pywws,2013-07-24 05:00:00,
2013-07-23 22:07:00,68.7,57.7,29.85,NW,315,1.6,3.8,68,0.00,,,0.00,pywws,2013-07-24 05:07:00,
2013-07-23 22:17:00,68.2,57.6,29.85,North,0,1.6,3.1,69,0.00,,,0.00,pywws,2013-07-24 05:17:00,
2013-07-23 22:27:00,67.6,57.5,29.85,NW,315,0.0,1.6,70,0.00,,,0.00,pywws,2013-07-24 05:27:00,
2013-07-23 22:37:00,66.9,57.2,29.85,West,270,0.7,2.2,71,0.00,,,0.00,pywws,2013-07-24 05:37:00,
2013-07-23 22:47:00,66.6,57.2,29.85,West,270,0.7,1.6,72,0.00,,,0.00,pywws,2013-07-24 05:47:00,
2013-07-23 23:00:00,66.4,57.5,29.84,West,270,0.7,2.2,73,0.00,,,0.00,pywws,2013-07-24 06:00:00,
2013-07-23 23:07:00,66.2,57.3,29.85,SW,225,0.7,2.2,73,0.00,,,0.00,pywws,2013-07-24 06:07:00,
2013-07-23 23:17:00,66.2,57.3,29.84,NE,45,0.7,2.2,73,0.00,,,0.00,pywws,2013-07-24 06:17:00,
2013-07-23 23:27:00,66.2,57.3,29.85,West,270,0.7,2.2,73,0.00,,,0.00,pywws,2013-07-24 06:27:00,
2013-07-23 23:37:00,65.8,57.3,29.85,NW,315,0.0,0.7,74,0.00,,,0.00,pywws,2013-07-24 06:37:00,
2013-07-23 23:47:00,65.3,57.2,29.85,NW,315,0.7,1.6,75,0.00,,,0.00,pywws,2013-07-24 06:47:00,